Location: Unspecified
(0.0000°N, 0.0000°E)
Time: 16:35:33
(UTC+00:00)

deb Explorer IX - Pass Details

Date: 19 December 2018
Orbit: 536 x 1116 km, 38.8° (Epoch: 21 March)

Event Time Altitude Azimuth Distance (km) Brightness Sun altitude
Rises 12:45:52 0° 228° (SW) 3,792 ? 63.8°
Reaches altitude 10° 12:48:43 10° 227° (SW) 2,768 ? 63.4°
Maximum altitude 12:55:25 85° 139° (SE) 901 ? 62.6°
Drops below altitude 10° 13:01:04 10° 51° (NE) 2,353 ? 61.9°
Sets 13:03:20 0° 50° (NE) 3,192 ? 61.6°
